Lid_Strength_Index
10 10 10 10 9 9 9 9 9 8 8 9 9 10 10 10 10 10 10 10 9 9 8 8 8 7 6
11 11 11 11 10 10 10 10 10 9 9 10 10 10 11 11 11 11 11 11 10 9 9 9 8 7 7
12 11 11 11 11 11 11 12 11 9 10 10 10 11 11 11 11 11 11 11 11 10 10 9 8 8 7
12 12 12 11 12 13 14 13 13 12 11 11 10 11 12 11 12 12 12 11 11 10 10 9 9 9 8
13 13 13 13 14 13 14 14 14 14 14 14 14 14 14 12 12 12 12 12 11 11 10 9 9 9 9
12 13 13 13 13 14 14 16 17 15 15 15 15 15 15 14 11 12 12 12 11 11 10 10 10 10 9
12 12 12 12 13 14 14 15 15 16 16 17 16 16 15 14 12 12 13 13 11 11 11 10 10 10 9
10 10 10 11 12 13 14 15 17 17 16 17 17 17 16 15 13 12 12 12 12 12 11 11 11 10 9
9 9 8 9 11 13 16 16 18 18 17 17 17 17 16 16 15 13 13 12 12 12 12 11 11 10 11
12 11 10 10 10 13 15 16 18 19 17 17 17 17 18 16 16 15 14 12 12 12 12 11 11 13 13
13 13 14 14 15 15 15 15 15 16 16 15 16 17 16 17 17 16 15 14 15 14 12 12 11 11 14
15 15 16 17 17 17 17 17 16 16 16 15 16 16 16 18 18 16 15 15 15 16 15 13 11 10 10
16 17 17 17 17 17 17 17 17 17 16 15 15 16 16 17 17 16 16 16 16 16 16 16 15 14 15
17 17 18 17 18 17 18 18 18 19 17 16 16 16 17 17 17 17 17 19 16 16 16 15 14 13 14
18 18 18 18 18 17 18 17 18 18 18 17 17 17 17 16 18 17 18 17 17 17 17 16 15 14 14
17 18 18 18 18 18 17 17 18 17 18 18 18 19 19 17 16 17 17 18 17 17 16 17 15 14 14
17 17 18 18 18 18 17 17 18 18 18 19 19 19 20 20 18 15 19 19 19 19 17 17 16 15 14